This is the latest recevied weather packets stored in our database for station/object Seibranz. If no packets are shown the sender has not sent any weather packets the latest 10 day(s).
| Time | Temp. | Humidity | Pressure | Rain* | Wind** | Luminosity | Snow |
|---|---|---|---|---|---|---|---|
| 1788444130 | 22.78° C | 54% | 1021.1 hPa | 0 mm | - | - | - |
| 1788442331 | 21.67° C | 54% | 1021.4 hPa | 0 mm | - | - | - |
| 1788440530 | 22.22° C | 59% | 1021.3 hPa | 0 mm | - | - | - |
| 1788438735 | 21.11° C | 59% | 1021.1 hPa | 0 mm | - | - | - |
| 1788436935 | 22.22° C | 56% | 1021.6 hPa | 0 mm | - | - | - |
| 1788435130 | 21.67° C | 62% | 1021.8 hPa | 0 mm | - | - | - |
| 1788433330 | 21.67° C | 62% | 1021.6 hPa | 0 mm | - | - | - |
| 1788431530 | 21.67° C | 61% | 1021.8 hPa | 0 mm | - | - | - |
| 1788429731 | 21.67° C | 63% | 1021.9 hPa | 0 mm | - | - | - |
| 1788427930 | 21.11° C | 63% | 1022 hPa | 0 mm | - | - | - |
| 1788426130 | 20.56° C | 68% | 1022.2 hPa | 0 mm | - | - | - |
| 1788424330 | 19.44° C | 74% | 1022.2 hPa | 0 mm | - | - | - |
| 1788422530 | 18.33° C | 77% | 1021.9 hPa | 0 mm | - | - | - |
| 1788420736 | 17.78° C | 75% | 1021.9 hPa | 0 mm | - | - | - |
| 1788418930 | 16.67° C | 84% | 1022.3 hPa | 0 mm | - | - | - |
| 1788417130 | 15.56° C | 86% | 1022.3 hPa | 0 mm | - | - | - |
| 1788415329 | 14.44° C | 88% | 1022.1 hPa | 0 mm | - | - | - |
| 1788413529 | 12.22° C | 93% | 1021.8 hPa | 0 mm | - | - | - |
| 1788411729 | 9.44° C | 94% | 1021.9 hPa | 0 mm | - | - | - |
| 1788409929 | 8.89° C | 93% | 1021.7 hPa | 0 mm | - | - | - |
| 1788408130 | 9.44° C | 93% | 1021.4 hPa | 0 mm | - | - | - |
| 1788406331 | 8.33° C | 92% | 1021.5 hPa | 0 mm | - | - | - |
| 1788404529 | 9.44° C | 93% | 1021.5 hPa | 0 mm | - | - | - |
| 1788402730 | 9.44° C | 92% | 1021.5 hPa | 0 mm | - | - | - |
| 1788400929 | 9.44° C | 91% | 1021.6 hPa | 0 mm | - | - | - |
* Rain since midnight (hover to see other rain measurements)
** Current wind speed in m/s (hover to see current wind gust speed)